Location: Asheville, NC
(35.6000°N, 82.5500°W)
Time: 18:40:57
(UTC-04:00)

RS-15 - Pass Details

Date: 05 January 2018
Orbit: 1889 x 2156 km, 64.8° (Epoch: 23 April)

Event Time Altitude Azimuth Distance (km) Brightness Sun altitude
Rises 21:59:32 0° 323° (NW) 5,529 10.8 -53.7°
Reaches altitude 10° 22:03:16 10° 316° (NW) 4,488 10.2 -54.4°
Enters shadow 22:11:20 36° 276° (W) 2,832 8.9 -56.0°
